Location: Reutlingen
(48.4911°N, 9.2587°E)
Time: 02:44:13
(UTC+01:00)

Amateur Radio Satellites - All Passes

Search period start: 25 November 2017 02:14
Search period end: 26 November 2017 02:14
Location: Reutlingen, 48.4911°N, 9.2587°E

Satellite Date Start Highest point End Downlink Frequencies (MHz)
Time Altitude Azimuth
AO-7 25 Nov 02:15:13 02:19:51 16° 85° (E) 02:24:29 .
Oscar 19 25 Nov 02:17:56 02:23:08 87° 286° (WNW) 02:28:19 437.125/150
BEESAT 25 Nov 02:21:33 02:26:09 50° 69° (ENE) 02:30:46 436.000
CUBESAT XI-V 25 Nov 02:32:02 02:35:31 22° 62° (ENE) 02:39:03 437.345
ITUPSAT 1 25 Nov 02:33:52 02:38:35 63° 71° (ENE) 02:43:19 437.325
ISS 25 Nov 02:34:10 02:36:39 20° 220° (SW) 02:39:08 437.550
DX 1 25 Nov 02:36:58 02:39:20 14° 271° (W) 02:41:45 434.975-435.025
PCSat 25 Nov 02:40:43 02:44:15 17° 334° (NNW) 02:47:46 145.827
ITAMSAT 1 25 Nov 02:42:30 02:44:03 11° 85° (E) 02:45:35 435.822/435.867
SO-50 25 Nov 02:47:24 02:49:39 13° 17° (NNE) 02:51:55 436.795
M-CUBED/EXP-1 PRIME 25 Nov 02:54:50 02:58:57 32° 101° (ESE) 03:03:06 437.505
RS-15 25 Nov 02:56:59 03:09:04 87° 53° (NE) 03:20:25 29.354- 29.394
AO-85 25 Nov 02:57:37 03:00:19 18° 113° (ESE) 03:03:05 145.980
BEESAT 2 25 Nov 03:00:48 03:04:41 50° 122° (ESE) 03:08:38 435.950
Gurwin Techsat 1B 25 Nov 03:15:24 03:20:25 42° 294° (WNW) 03:25:23 435.225
BEESAT 3 25 Nov 03:17:14 03:21:03 41° 316° (NW) 03:24:53 437.485
YUBILEINY 25 Nov 03:24:47 03:28:34 14° 69° (ENE) 03:32:21 435.215
KKS-1 25 Nov 03:32:35 03:36:01 22° 62° (ENE) 03:39:26 437.445
AO-91 25 Nov 03:35:55 03:38:47 17° 303° (WNW) 03:41:29 145.960
STARS 25 Nov 03:46:36 03:48:49 14° 57° (ENE) 03:51:02 437.465
MOZHAYETS 4 25 Nov 03:47:01 03:50:36 23° 268° (W) 03:54:12
Oscar 19 25 Nov 03:58:43 04:01:44 16° 305° (NW) 04:04:45 437.125/150
BEESAT 25 Nov 04:00:27 04:04:10 23° 267° (W) 04:07:56 436.000
AO-7 25 Nov 04:05:49 04:14:10 70° 106° (ESE) 04:22:31 .
CUBESAT XI-V 25 Nov 04:08:04 04:12:33 52° 260° (W) 04:17:06 437.345
ITUPSAT 1 25 Nov 04:13:35 04:16:50 18° 269° (W) 04:20:05 437.325
ITAMSAT 1 25 Nov 04:19:10 04:24:24 76° 103° (ESE) 04:29:36 435.822/435.867
SO-50 25 Nov 04:27:09 04:31:25 36° 40° (NE) 04:35:44 436.795
PCSat 25 Nov 04:28:58 04:30:02 11° 0° (N) 04:31:06 145.827
M-CUBED/EXP-1 PRIME 25 Nov 04:29:07 04:33:19 37° 298° (WNW) 04:37:34 437.505
AO-85 25 Nov 04:36:22 04:40:15 56° 313° (NW) 04:44:22 145.980
BEESAT 2 25 Nov 04:39:11 04:42:38 26° 322° (NW) 04:46:07 435.950
DOVE 4 25 Nov 04:55:50 05:00:38 38° 95° (E) 05:05:12 437.250
BEESAT 3 25 Nov 04:58:01 04:59:37 12° 338° (NNW) 05:01:12 437.485
STRAND 1 25 Nov 05:06:42 05:09:07 13° 53° (NE) 05:11:32 437.568
KKS-1 25 Nov 05:07:54 05:12:15 50° 260° (W) 05:16:38 437.445
RS-15 25 Nov 05:10:29 05:20:02 31° 257° (WSW) 05:29:15 29.354- 29.394
YUBILEINY 25 Nov 05:14:50 05:23:24 62° 92° (E) 05:32:04 435.215
STARS 25 Nov 05:20:04 05:24:31 87° 254° (WSW) 05:28:59 437.465
XW-2C 25 Nov 05:35:07 05:37:37 17° 91° (E) 05:40:07 145.795 - 145.815
HO-68 25 Nov 05:39:24 05:40:43 11° 81° (E) 05:42:03 435.675
XW-2F 25 Nov 05:41:43 05:44:24 18° 92° (E) 05:47:04 145.980 - 146.000
LilacSat-2 25 Nov 05:41:59 05:44:58 21° 93° (E) 05:47:56 437.200
AO-7 25 Nov 05:59:08 06:06:26 35° 307° (NW) 06:13:44 .
ITAMSAT 1 25 Nov 05:59:42 06:03:17 19° 303° (WNW) 06:06:53 435.822/435.867
KAITUO 1B 25 Nov 06:02:00 06:05:05 23° 94° (E) 06:08:10 145.475/437.950
SO-50 25 Nov 06:07:35 06:11:58 42° 239° (WSW) 06:16:24 436.795
PCSat 25 Nov 06:12:17 06:15:50 17° 27° (NNE) 06:19:23 145.827
AO-85 25 Nov 06:19:14 06:21:36 15° 336° (NNW) 06:24:03 145.980
CUTE-I 25 Nov 06:20:46 06:25:51 41° 98° (E) 06:30:53 437.470
FO-29 25 Nov 06:21:34 06:27:10 25° 53° (NE) 06:33:06 435.910
XW-2D 25 Nov 06:27:20 06:31:09 63° 101° (ESE) 06:34:57 145.860 - 145.880
DOVE 4 25 Nov 06:33:37 06:38:13 33° 295° (WNW) 06:42:37 437.250
NUDT-PHONESAT 25 Nov 06:38:48 06:42:30 57° 101° (E) 06:46:10 437.300
STRAND 1 25 Nov 06:42:18 06:47:26 74° 72° (ENE) 06:52:36 437.568
XW-2B 25 Nov 06:42:19 06:46:10 90° 130° (SE) 06:50:00 145.730 - 145.750
STARS 25 Nov 07:00:41 07:01:31 10° 273° (W) 07:02:21 437.465
XW-2C 25 Nov 07:08:22 07:12:02 45° 288° (WNW) 07:15:41 145.795 - 145.815
CUTE 1.7 + AOD 2 25 Nov 07:10:17 07:14:25 45° 98° (E) 07:18:31 437.475
YUBILEINY 25 Nov 07:12:50 07:20:45 36° 295° (WNW) 07:28:46 435.215
CUBEBUG 2 25 Nov 07:14:27 07:18:06 29° 95° (E) 07:21:43 437.445
XW-2F 25 Nov 07:15:06 07:18:42 41° 289° (WNW) 07:22:16 145.980 - 146.000
LilacSat-2 25 Nov 07:15:48 07:19:20 36° 290° (WNW) 07:22:53 437.200
HO-68 25 Nov 07:22:58 07:30:04 57° 102° (ESE) 07:37:05 435.675
AAUSAT CUBESAT 2 25 Nov 07:26:50 07:29:57 20° 92° (E) 07:33:02 437.432
SEEDS 25 Nov 07:32:25 07:36:33 48° 99° (E) 07:40:40 437.485
KAITUO 1B 25 Nov 07:35:44 07:39:05 31° 292° (WNW) 07:42:26 145.475/437.950
ZACube-1 25 Nov 07:43:21 07:46:21 19° 92° (E) 07:49:21 437.345
AO-7 25 Nov 07:54:04 07:56:46 12° 332° (NNW) 07:59:29 .
PCSat 25 Nov 07:55:05 08:00:27 56° 50° (NE) 08:05:46 145.827
CUTE-I 25 Nov 08:01:01 08:05:48 33° 297° (WNW) 08:10:32 437.470
UWE-3 25 Nov 08:02:01 08:06:06 52° 100° (E) 08:10:09 435.000/436.395/437.385
XW-2D 25 Nov 08:02:54 08:04:50 14° 299° (WNW) 08:06:49 145.860 - 145.880
FO-29 25 Nov 08:04:14 08:11:12 89° 262° (W) 08:18:58 435.910
NUDT-PHONESAT 25 Nov 08:13:54 08:15:55 14° 298° (WNW) 08:17:56 437.300
BEESAT 3 25 Nov 08:16:12 08:18:18 14° 26° (NNE) 08:20:23 437.485
XW-2B 25 Nov 08:19:08 08:19:42 10° 302° (WNW) 08:20:16 145.730 - 145.750
STRAND 1 25 Nov 08:23:51 08:27:10 17° 271° (W) 08:30:31 437.568
XW-2A 25 Nov 08:28:00 08:31:22 79° 286° (WNW) 08:34:45 145.665 - 145.685
AO-73 25 Nov 08:30:57 08:35:01 50° 99° (E) 08:39:06 145.935
Oscar 11 25 Nov 08:42:28 08:46:39 46° 98° (E) 08:50:50 .
PRISM 25 Nov 08:43:04 08:45:48 17° 61° (ENE) 08:48:34 437.425
CUTE 1.7 + AOD 2 25 Nov 08:46:42 08:49:58 22° 296° (WNW) 08:53:15 437.475
CUBEBUG 2 25 Nov 08:51:05 08:54:42 29° 293° (WNW) 08:58:18 437.445
DELFI C3 25 Nov 08:53:09 08:55:09 13° 89° (E) 08:57:07 145.870
UNISAT 6 25 Nov 09:01:28 09:05:57 66° 73° (ENE) 09:10:20 437.425
AAUSAT CUBESAT 2 25 Nov 09:01:35 09:05:36 45° 290° (WNW) 09:09:35 437.432
TIGRISAT 25 Nov 09:04:37 09:09:04 65° 73° (ENE) 09:13:27 435.000
Max Valier Satellite 25 Nov 09:05:25 09:06:41 11° 89° (E) 09:07:57 145.860
SEEDS 25 Nov 09:08:46 09:11:55 20° 297° (WNW) 09:15:04 437.485
HO-68 25 Nov 09:11:07 09:17:31 36° 302° (WNW) 09:23:53 435.675
ZACube-1 25 Nov 09:18:54 09:22:53 46° 289° (WNW) 09:26:52 437.345
BEESAT 2 25 Nov 09:37:38 09:40:40 20° 33° (NNE) 09:43:41 435.950
PCSat 25 Nov 09:38:58 09:43:33 28° 250° (WSW) 09:48:05 145.827
UWE-3 25 Nov 09:39:23 09:42:13 18° 298° (WNW) 09:45:01 435.000/436.395/437.385
AO-85 25 Nov 09:43:19 09:46:11 16° 26° (NNE) 09:49:11 145.980
POLYITAN 1 25 Nov 09:51:16 09:52:46 12° 57° (ENE) 09:54:15 437.675
FO-29 25 Nov 09:52:19 09:57:21 21° 276° (W) 10:02:44 435.910
BEESAT 3 25 Nov 09:52:46 09:56:42 55° 48° (NE) 10:00:32 437.485
AIST 2D 25 Nov 10:05:27 10:08:31 30° 69° (ENE) 10:11:39 435.315
AO-73 25 Nov 10:08:01 10:10:55 19° 298° (WNW) 10:13:50 145.935
QB50P2 25 Nov 10:13:04 10:16:10 20° 62° (ENE) 10:19:17 145.880/145.840
PRISM 25 Nov 10:16:35 10:20:39 57° 259° (WSW) 10:24:47 437.425
FALCONSAT 3 25 Nov 10:16:52 10:17:53 11° 180° (S) 10:18:55 435.103
Oscar 11 25 Nov 10:19:13 10:22:31 22° 297° (WNW) 10:25:50 .
EO-88 25 Nov 10:25:15 10:28:54 65° 102° (ESE) 10:32:32 145.990 - 145.960
DELFI C3 25 Nov 10:26:19 10:30:18 63° 287° (WNW) 10:34:14 145.870
ESTCUBE 1 25 Nov 10:36:14 10:37:49 12° 87° (E) 10:39:23 437.505/2401.250
LO-87 25 Nov 10:37:06 10:38:35 12° 89° (E) 10:40:03 145.935 - 145.965
Max Valier Satellite 25 Nov 10:37:15 10:40:54 62° 286° (WNW) 10:44:33 145.860
UNISAT 6 25 Nov 10:40:23 10:43:04 15° 270° (W) 10:45:44 437.425
TIGRISAT 25 Nov 10:43:27 10:46:10 16° 270° (W) 10:48:51 435.000
DUCHIFAT 1 25 Nov 10:54:35 10:58:24 35° 68° (ENE) 11:02:13 145.980
EO-79 25 Nov 11:07:07 11:11:17 59° 72° (ENE) 11:15:27 145.935-145.965
NANOSAT C BR1 25 Nov 11:07:24 11:11:30 53° 71° (ENE) 11:15:37 145.865
BEESAT 2 25 Nov 11:14:49 11:18:53 80° 234° (SW) 11:22:52 435.950
AO-85 25 Nov 11:22:57 11:27:29 57° 47° (NE) 11:32:22 145.980
POLYITAN 1 25 Nov 11:23:38 11:27:52 86° 73° (ENE) 11:32:07 437.675
AO-91 25 Nov 11:23:41 11:26:53 16° 57° (ENE) 11:30:02 145.960
Gurwin Techsat 1B 25 Nov 11:23:59 11:26:30 14° 52° (NE) 11:29:01 435.225
BUGSAT 1 25 Nov 11:30:10 11:33:27 23° 64° (ENE) 11:36:42 437.445
BEESAT 3 25 Nov 11:31:04 11:33:51 19° 246° (WSW) 11:36:36 437.485
AO-7 25 Nov 11:31:48 11:34:32 12° 28° (NNE) 11:37:17 .
AIST 2D 25 Nov 11:39:09 11:41:45 20° 267° (W) 11:44:23 435.315
QB50P2 25 Nov 11:47:32 11:51:39 48° 260° (W) 11:55:46 145.880/145.840
Oscar 19 25 Nov 12:00:13 12:04:40 31° 63° (ENE) 12:09:08 437.125/150
EO-88 25 Nov 12:00:29 12:02:03 12° 299° (WNW) 12:03:38 145.990 - 145.960
O/OREOS (USA 219) 25 Nov 12:02:13 12:05:29 19° 101° (E) 12:08:45 437.305
LO-87 25 Nov 12:08:50 12:12:19 53° 287° (WNW) 12:15:46 145.935 - 145.965
ESTCUBE 1 25 Nov 12:10:41 12:15:16 88° 281° (W) 12:19:48 437.505/2401.250
VELOX 1 25 Nov 12:12:18 12:15:21 18° 91° (E) 12:18:22 145.980
DUCHIFAT 1 25 Nov 12:30:36 12:34:07 26° 266° (W) 12:37:39 145.980
SPROUT 25 Nov 12:34:23 12:38:27 43° 98° (E) 12:42:29 437.525
NANOSAT C BR1 25 Nov 12:44:42 12:47:31 17° 269° (W) 12:50:20 145.865
EO-79 25 Nov 12:44:51 12:47:25 16° 270° (W) 12:49:59 145.935-145.965
AO-91 25 Nov 12:57:10 13:02:35 84° 75° (ENE) 13:07:54 145.960
Gurwin Techsat 1B 25 Nov 13:00:15 13:05:32 71° 72° (ENE) 13:10:51 435.225
POLYITAN 1 25 Nov 13:03:21 13:04:15 11° 273° (W) 13:05:09 437.675
AO-85 25 Nov 13:03:49 13:07:40 25° 244° (WSW) 13:11:44 145.980
BUGSAT 1 25 Nov 13:04:39 13:08:35 40° 262° (W) 13:12:30 437.445
UKube-1 25 Nov 13:17:03 13:18:45 12° 88° (E) 13:20:27 .
AO-7 25 Nov 13:17:37 13:24:53 36° 53° (NE) 13:32:10 .
Oscar 19 25 Nov 13:39:02 13:43:51 41° 262° (W) 13:48:44 437.125/150
O/OREOS (USA 219) 25 Nov 13:39:56 13:44:29 57° 300° (WNW) 13:49:02 437.305
M-CUBED/EXP-1 PRIME 25 Nov 13:43:44 13:47:26 63° 67° (ENE) 13:51:29 437.505
VELOX 1 25 Nov 13:47:46 13:52:09 56° 289° (WNW) 13:56:29 145.980
ESTCUBE 1 25 Nov 13:49:14 13:51:23 13° 303° (WNW) 13:53:32 437.505/2401.250
ITAMSAT 1 25 Nov 14:02:36 14:07:00 28° 61° (ENE) 14:11:24 435.822/435.867
50 SAT 25 Nov 14:09:11 14:12:24 76° 103° (ESE) 14:15:35 437.505
SPROUT 25 Nov 14:10:48 14:14:06 22° 297° (WNW) 14:17:22 437.525
NO-84 25 Nov 14:12:08 14:15:31 38° 138° (SE) 14:19:11 435.350 FM
DX 1 25 Nov 14:18:38 14:23:02 76° 102° (ESE) 14:27:24 434.975-435.025
DOVE 4 25 Nov 14:31:05 14:32:20 11° 51° (NE) 14:33:36 437.250
ITUPSAT 1 25 Nov 14:32:35 14:34:17 12° 87° (E) 14:35:58 437.325
AO-91 25 Nov 14:36:13 14:39:35 17° 273° (W) 14:42:55 145.960
Gurwin Techsat 1B 25 Nov 14:42:21 14:46:01 19° 271° (W) 14:49:42 435.225
UKube-1 25 Nov 14:50:59 14:55:21 80° 286° (WNW) 14:59:39 .
AO-7 25 Nov 15:08:55 15:17:10 68° 254° (WSW) 15:25:29 .
YUBILEINY 25 Nov 15:20:14 15:28:23 38° 66° (ENE) 15:36:27 435.215
M-CUBED/EXP-1 PRIME 25 Nov 15:20:29 15:22:21 13° 267° (W) 15:24:17 437.505
O/OREOS (USA 219) 25 Nov 15:23:20 15:24:56 12° 322° (NW) 15:26:32 437.305
MOZHAYETS 4 25 Nov 15:36:39 15:41:13 63° 102° (ESE) 15:45:45
ITAMSAT 1 25 Nov 15:41:09 15:46:12 49° 260° (W) 15:51:19 435.822/435.867
NO-84 25 Nov 15:49:06 15:52:48 51° 338° (NNW) 15:56:46 435.350 FM
BEESAT 25 Nov 15:55:08 15:59:53 69° 103° (ESE) 16:04:37 436.000
DX 1 25 Nov 15:56:10 15:58:39 15° 302° (WNW) 16:01:09 434.975-435.025
CUBESAT XI-V 25 Nov 16:00:41 16:04:48 29° 94° (E) 16:08:55 437.345
DOVE 4 25 Nov 16:03:49 16:08:53 56° 70° (ENE) 16:14:05 437.250
ITUPSAT 1 25 Nov 16:08:01 16:12:49 87° 104° (ESE) 16:17:35 437.325
CUTE-I 25 Nov 16:08:47 16:12:15 18° 55° (NE) 16:15:45 437.470
HO-68 25 Nov 16:11:35 16:15:45 17° 45° (NE) 16:19:57 435.675
XW-2C 25 Nov 16:20:25 16:22:34 15° 62° (ENE) 16:24:43 145.795 - 145.815
XW-2F 25 Nov 16:26:29 16:28:47 16° 62° (ENE) 16:31:06 145.980 - 146.000
LilacSat-2 25 Nov 16:27:43 16:30:23 19° 64° (ENE) 16:33:03 437.200
UKube-1 25 Nov 16:29:12 16:30:37 11° 305° (NW) 16:32:03 .
KAITUO 1B 25 Nov 16:45:39 16:48:21 19° 64° (ENE) 16:51:04 145.475/437.950
KKS-1 25 Nov 16:55:17 16:58:52 23° 93° (E) 17:02:25 437.445
AO-7 25 Nov 17:07:07 17:11:31 15° 275° (W) 17:15:58 .
STARS 25 Nov 17:07:14 17:09:15 13° 88° (E) 17:11:14 437.465
XW-2D 25 Nov 17:11:44 17:15:22 51° 72° (ENE) 17:19:02 145.860 - 145.880
MOZHAYETS 4 25 Nov 17:14:48 17:17:55 18° 300° (WNW) 17:21:02
YUBILEINY 25 Nov 17:17:00 17:25:38 59° 269° (W) 17:34:12 435.215
NUDT-PHONESAT 25 Nov 17:21:02 17:24:29 43° 71° (ENE) 17:27:59 437.300
RS-15 25 Nov 17:24:36 17:35:29 39° 107° (ESE) 17:46:16 29.354- 29.394
XW-2B 25 Nov 17:26:38 17:30:22 73° 75° (ENE) 17:34:08 145.730 - 145.750
NO-84 25 Nov 17:27:10 17:30:45 32° 360° (N) 17:34:32 435.350 FM
BEESAT 25 Nov 17:33:56 17:37:10 18° 302° (WNW) 17:40:23 436.000
CUBESAT XI-V 25 Nov 17:37:55 17:42:14 37° 292° (WNW) 17:46:32 437.345
DOVE 4 25 Nov 17:42:45 17:46:52 24° 270° (W) 17:51:07 437.250
CUTE-I 25 Nov 17:46:14 17:51:36 87° 252° (WSW) 17:57:02 437.470
ITUPSAT 1 25 Nov 17:47:19 17:49:59 15° 304° (NW) 17:52:38 437.325
XW-2C 25 Nov 17:52:40 17:56:19 55° 260° (W) 18:00:02 145.795 - 145.815
HO-68 25 Nov 17:55:05 18:02:09 62° 66° (ENE) 18:09:15 435.675
XW-2F 25 Nov 17:58:54 18:02:31 49° 261° (W) 18:06:11 145.980 - 146.000
LilacSat-2 25 Nov 18:00:48 18:04:23 41° 262° (W) 18:07:59 437.200
CUTE 1.7 + AOD 2 25 Nov 18:06:09 18:10:14 50° 71° (ENE) 18:14:20 437.475
CUBEBUG 2 25 Nov 18:15:34 18:19:45 40° 70° (ENE) 18:23:51 437.445
KAITUO 1B 25 Nov 18:18:40 18:22:06 37° 262° (W) 18:25:35 145.475/437.950
AAUSAT CUBESAT 2 25 Nov 18:20:23 18:23:34 22° 64° (ENE) 18:26:46 437.432
SEEDS 25 Nov 18:27:14 18:31:18 52° 72° (ENE) 18:35:24 437.485
KKS-1 25 Nov 18:31:21 18:35:36 43° 292° (WNW) 18:39:48 437.445
STARS 25 Nov 18:41:43 18:46:08 77° 286° (WNW) 18:50:29 437.465
ZACube-1 25 Nov 18:42:33 18:45:59 24° 65° (ENE) 18:49:23 437.345
XW-2D 25 Nov 18:47:46 18:49:51 14° 270° (W) 18:51:56 145.860 - 145.880
STRAND 1 25 Nov 18:49:53 18:53:27 19° 90° (E) 18:56:59 437.568
NUDT-PHONESAT 25 Nov 18:56:15 18:58:34 16° 269° (W) 19:00:53 437.300
UWE-3 25 Nov 19:02:06 19:06:27 67° 74° (ENE) 19:10:41 435.000/436.395/437.385
XW-2A 25 Nov 19:02:08 19:05:24 58° 74° (ENE) 19:08:41 145.665 - 145.685
XW-2B 25 Nov 19:04:31 19:05:01 10° 273° (W) 19:05:33 145.730 - 145.750
NO-84 25 Nov 19:04:45 19:08:45 48° 21° (NNE) 19:12:53 435.350 FM
FO-29 25 Nov 19:12:02 19:16:04 15° 79° (E) 19:19:59 435.910
ISS 25 Nov 19:16:27 19:18:39 17° 138° (SE) 19:20:52 437.550
YUBILEINY 25 Nov 19:17:02 19:20:23 13° 292° (WNW) 19:23:44 435.215
AO-73 25 Nov 19:29:39 19:33:50 62° 73° (ENE) 19:37:57 145.935
CUTE-I 25 Nov 19:29:45 19:32:27 14° 274° (W) 19:35:10 437.470
RS-15 25 Nov 19:34:43 19:47:08 78° 312° (NW) 19:59:22 29.354- 29.394
Oscar 11 25 Nov 19:40:30 19:44:42 55° 71° (ENE) 19:48:55 .
DELFI C3 25 Nov 19:42:07 19:44:13 14° 60° (ENE) 19:46:20 145.870
CUTE 1.7 + AOD 2 25 Nov 19:43:27 19:46:21 18° 269° (W) 19:49:17 437.475
HO-68 25 Nov 19:44:03 19:50:18 31° 266° (W) 19:56:37 435.675
Max Valier Satellite 25 Nov 19:49:19 19:49:28 10° 59° (ENE) 19:49:37 145.860
nSIGHT-1 25 Nov 19:51:55 19:54:55 36° 147° (SSE) 19:57:54 .
CUBEBUG 2 25 Nov 19:52:50 19:56:29 24° 266° (W) 20:00:06 437.445
AAUSAT CUBESAT 2 25 Nov 19:54:50 19:58:46 42° 262° (W) 20:02:45 437.432
SEEDS 25 Nov 20:04:30 20:07:17 17° 270° (W) 20:10:06 437.485
ZACube-1 25 Nov 20:18:08 20:22:06 37° 262° (W) 20:26:03 437.345
STARS 25 Nov 20:20:23 20:21:41 11° 305° (NW) 20:22:59 437.465
SO-50 25 Nov 20:25:41 20:29:17 24° 115° (ESE) 20:32:55 436.795
STRAND 1 25 Nov 20:28:01 20:33:07 67° 289° (WNW) 20:38:09 437.568
O/OREOS (USA 219) 25 Nov 20:29:01 20:31:13 13° 41° (NE) 20:33:24 437.305
UWE-3 25 Nov 20:41:00 20:43:20 14° 271° (W) 20:45:39 435.000/436.395/437.385
NO-84 25 Nov 20:42:07 20:46:11 51° 220° (SW) 20:50:20 435.350 FM
ISS 25 Nov 20:51:27 20:54:43 80° 156° (SSE) 20:58:00 437.550
FO-29 25 Nov 20:54:47 21:02:38 67° 101° (E) 21:09:55 435.910
EO-88 25 Nov 21:05:59 21:09:28 47° 72° (ENE) 21:12:59 145.990 - 145.960
AO-73 25 Nov 21:08:05 21:10:27 15° 271° (W) 21:12:49 145.935
DELFI C3 25 Nov 21:14:30 21:18:27 68° 258° (WSW) 21:22:27 145.870
LO-87 25 Nov 21:17:50 21:18:24 10° 59° (ENE) 21:18:58 145.935 - 145.965
Oscar 11 25 Nov 21:18:22 21:21:11 17° 270° (W) 21:24:01 .
Max Valier Satellite 25 Nov 21:19:02 21:22:40 84° 256° (WSW) 21:26:21 145.860
nSIGHT-1 25 Nov 21:27:51 21:31:03 61° 345° (NNW) 21:34:15 .
ESTCUBE 1 25 Nov 21:38:39 21:41:41 18° 60° (ENE) 21:44:43 437.505/2401.250
RS-15 25 Nov 21:50:22 22:01:47 41° 342° (NNW) 22:12:55 29.354- 29.394
PRISM 25 Nov 21:55:03 21:57:29 15° 90° (E) 21:59:54 437.425
SO-50 25 Nov 22:05:04 22:09:27 53° 315° (NW) 22:13:55 436.795
O/OREOS (USA 219) 25 Nov 22:06:58 22:11:32 70° 62° (ENE) 22:16:02 437.305
STRAND 1 25 Nov 22:09:25 22:11:21 12° 308° (NW) 22:13:17 437.568
UNISAT 6 25 Nov 22:25:45 22:30:03 87° 104° (ESE) 22:34:18 437.425
ISS 25 Nov 22:28:11 22:31:22 47° 356° (N) 22:34:33 437.550
TIGRISAT 25 Nov 22:28:42 22:32:59 85° 103° (ESE) 22:37:14 435.000
FO-29 25 Nov 22:40:17 22:47:07 34° 302° (WNW) 22:53:38 435.910
EO-88 25 Nov 22:41:20 22:43:22 14° 270° (W) 22:45:25 145.990 - 145.960
PCSat 25 Nov 22:41:44 22:45:46 22° 108° (ESE) 22:49:49 145.827
LO-87 25 Nov 22:47:37 22:51:13 80° 258° (WSW) 22:54:50 145.935 - 145.965
AIST 2D 25 Nov 22:59:24 23:02:16 23° 94° (E) 23:05:06 435.315
nSIGHT-1 25 Nov 23:04:26 23:07:34 47° 5° (N) 23:10:42 .
POLYITAN 1 25 Nov 23:07:04 23:07:58 11° 87° (E) 23:08:53 437.675
VELOX 1 25 Nov 23:12:42 23:16:22 26° 64° (ENE) 23:20:04 145.980
ESTCUBE 1 25 Nov 23:13:36 23:18:02 63° 258° (WSW) 23:22:31 437.505/2401.250
QB50P2 25 Nov 23:28:56 23:32:06 20° 92° (E) 23:35:14 145.880/145.840
PRISM 25 Nov 23:29:01 23:33:08 60° 289° (WNW) 23:37:13 437.425
SPROUT 25 Nov 23:30:45 23:34:55 53° 71° (ENE) 23:39:06 437.525
DX 1 25 Nov 23:43:41 23:46:08 15° 57° (ENE) 23:48:34 434.975-435.025
O/OREOS (USA 219) 25 Nov 23:47:45 23:50:21 15° 261° (W) 23:52:57 437.305
SO-50 25 Nov 23:48:06 23:50:55 16° 337° (NNW) 23:53:45 436.795
UNISAT 6 26 Nov 00:04:17 00:06:07 13° 303° (WNW) 00:07:56 437.425
ISS 26 Nov 00:04:51 00:08:08 65° 16° (NNE) 00:11:23 437.550
RS-15 26 Nov 00:06:54 00:18:09 39° 16° (NNE) 00:28:53 29.354- 29.394
TIGRISAT 26 Nov 00:07:10 00:09:02 13° 303° (WNW) 00:10:54 435.000
DUCHIFAT 1 26 Nov 00:09:48 00:13:41 36° 97° (E) 00:17:31 145.980
UKube-1 26 Nov 00:14:23 00:17:20 18° 60° (ENE) 00:20:18 .
NANOSAT C BR1 26 Nov 00:23:11 00:27:19 57° 100° (E) 00:31:26 145.865
PCSat 26 Nov 00:23:14 00:28:39 70° 307° (NW) 00:34:06 145.827
EO-79 26 Nov 00:23:22 00:27:34 65° 102° (ESE) 00:31:43 145.935-145.965
AIST 2D 26 Nov 00:32:22 00:35:25 28° 291° (WNW) 00:38:29 435.315
50 SAT 26 Nov 00:39:11 00:42:14 40° 71° (ENE) 00:45:18 437.505
POLYITAN 1 26 Nov 00:40:08 00:44:21 85° 285° (WNW) 00:48:33 437.675
nSIGHT-1 26 Nov 00:40:43 00:43:56 73° 207° (SSW) 00:47:07 .
BUGSAT 1 26 Nov 00:42:47 00:45:52 21° 93° (E) 00:48:55 437.445
AO-91 26 Nov 00:46:15 00:48:04 12° 84° (E) 00:49:48 145.960
VELOX 1 26 Nov 00:48:27 00:52:38 40° 262° (W) 00:56:52 145.980
QB50P2 26 Nov 01:04:05 01:08:05 44° 290° (WNW) 01:12:05 145.880/145.840
MOZHAYETS 4 26 Nov 01:07:39 01:09:56 14° 57° (ENE) 01:12:14
SPROUT 26 Nov 01:08:13 01:11:07 18° 269° (W) 01:14:02 437.525
Gurwin Techsat 1B 26 Nov 01:13:20 01:17:18 21° 91° (E) 01:21:14 435.225
DX 1 26 Nov 01:17:21 01:21:43 78° 256° (WSW) 01:26:09 434.975-435.025
BEESAT 3 26 Nov 01:22:51 01:26:11 26° 117° (ESE) 01:29:32 437.485
BEESAT 26 Nov 01:29:13 01:32:28 19° 58° (ENE) 01:35:44 436.000
SO-50 26 Nov 01:32:18 01:33:18 11° 2° (N) 01:34:19 436.795
ISS 26 Nov 01:41:29 01:44:28 32° 215° (SW) 01:47:25 437.550
ITUPSAT 1 26 Nov 01:41:52 01:45:35 23° 61° (ENE) 01:49:18 437.325
DUCHIFAT 1 26 Nov 01:45:46 01:49:11 25° 295° (WNW) 01:52:35 145.980
Oscar 19 26 Nov 01:46:11 01:51:14 51° 100° (E) 01:56:16 437.125/150
UKube-1 26 Nov 01:48:41 01:52:56 58° 258° (WSW) 01:57:15 .
NANOSAT C BR1 26 Nov 01:59:52 02:02:37 17° 299° (WNW) 02:05:22 145.865
EO-79 26 Nov 02:00:19 02:02:51 16° 300° (WNW) 02:05:22 145.935-145.965
